Weather History for Phoenix-Mesa Gateway Airport, AZ

Change the Weather History Date:

Friday, February 1, 2013

  Actual Average Record
Temperature  
Mean Temperature 55 °F -  
Max Temperature 69 °F 65 °F 84 °F (2003)
Min Temperature 41 °F 41 °F 26 °F (2002)
Degree Days  
Heating Degree Days 10    
Growing Degree Days 5 (Base 50)    
Moisture  
Dew Point 36 °F    
Average Humidity 64    
Maximum Humidity 81    
Minimum Humidity 23    
Precipitation  
Precipitation 0.00 in - - ()
Sea Level Pressure  
Sea Level Pressure 30.18 in    
Wind  
Wind Speed 5 mph (ESE)    
Max Wind Speed 9 mph    
Max Gust Speed -    
Visibility 12 miles    
Events      
Averages and records for this station are not official NWS values.
T = Trace of Precipitation, MM = Missing Value Source: NWS Daily Summary

Daily Weather History Graph

Daily Weather History Graph

Search for Another Location

Airport:

Trip Planner

Search our weather history database for the weather conditions in past years. The results will help you decide how hot, cold, wet, or windy it might be!

Date:

Astronomy

Feb. 01, 2013 Rise Set
Actual Time 7:22 AM MST 5:58 PM MST
Civil Twilight 6:56 AM MST 6:24 PM MST
Nautical Twilight 6:26 AM MST 6:54 PM MST
Astronomical Twilight 5:57 AM MST 7:23 PM MST
Moon 11:47 PM MST (2/1) 10:18 AM MST (2/1)
Length of Visible Light 11h 28m
Length of Day
10h 36m
Waning Gibbous, 69% of the Moon is Illuminated
Feb 1
Waning Gibbous
Feb 3
Last Quarter
Feb 10
New
Feb 17
First Quarter
Feb 25
Full

Hourly Weather History & Observations

Time (MST) Temp. Windchill Dew Point Humidity Pressure Visibility Wind Dir Wind Speed Gust Speed Precip Events Conditions
12:15 AM 44.6 °F 41.4 °F 37.4 °F 76% 30.17 in 10.0 mi ESE 5.8 mph - N/A   Clear
12:35 AM 44.6 °F 40.7 °F 37.4 °F 76% 30.17 in 10.0 mi ESE 6.9 mph - N/A   Clear
12:55 AM 42.8 °F 38.0 °F 37.4 °F 81% 30.17 in 10.0 mi ESE 8.1 mph - N/A   Clear
1:15 AM 42.8 °F 38.6 °F 37.4 °F 81% 30.17 in 10.0 mi East 6.9 mph - N/A   Clear
1:35 AM 42.8 °F 39.3 °F 37.4 °F 81% 30.17 in 10.0 mi ESE 5.8 mph - N/A   Clear
1:55 AM 42.8 °F 40.1 °F 35.6 °F 76% 30.17 in 10.0 mi East 4.6 mph - N/A   Clear
2:15 AM 42.8 °F 38.6 °F 37.4 °F 81% 30.16 in 10.0 mi East 6.9 mph - N/A   Clear
2:35 AM 42.8 °F 39.3 °F 35.6 °F 76% 30.16 in 10.0 mi ESE 5.8 mph - N/A   Clear
2:55 AM 42.8 °F 39.3 °F 35.6 °F 76% 30.15 in 10.0 mi East 5.8 mph - N/A   Clear
3:15 AM 42.8 °F 39.3 °F 35.6 °F 76% 30.16 in 10.0 mi ESE 5.8 mph - N/A   Clear
3:35 AM 41.0 °F 37.1 °F 35.6 °F 81% 30.16 in 10.0 mi East 5.8 mph - N/A   Clear
3:55 AM 42.8 °F 37.5 °F 35.6 °F 76% 30.16 in 10.0 mi SE 9.2 mph - N/A   Clear
4:15 AM 42.8 °F 37.5 °F 35.6 °F 76% 30.16 in 10.0 mi SE 9.2 mph - N/A   Clear
4:35 AM 42.8 °F 38.6 °F 33.8 °F 70% 30.16 in 10.0 mi ESE 6.9 mph - N/A   Clear
4:55 AM 41.0 °F 36.4 °F 33.8 °F 76% 30.17 in 10.0 mi East 6.9 mph - N/A   Clear
5:15 AM 41.0 °F 38.0 °F 33.8 °F 76% 30.17 in 10.0 mi SE 4.6 mph - N/A   Clear
5:47 AM 41.0 °F 38.0 °F 35.6 °F 81% 30.17 in 20.0 mi East 4.6 mph - N/A   Clear
6:47 AM 41.0 °F 38.0 °F 33.8 °F 76% 30.18 in 20.0 mi East 4.6 mph - N/A   Clear
7:47 AM 41.0 °F 38.0 °F 33.8 °F 76% 30.20 in 45.0 mi ESE 4.6 mph - N/A   Clear
8:47 AM 44.6 °F 43.1 °F 35.6 °F 71% 30.22 in 45.0 mi ESE 3.5 mph - N/A   Clear
9:47 AM 51.8 °F - 35.6 °F 54% 30.22 in 45.0 mi Calm Calm - N/A   Clear
10:49 AM 55.4 °F - 37.4 °F 51% 30.23 in 45.0 mi Calm Calm - N/A   Partly Cloudy
11:47 AM 60.8 °F - 35.6 °F 39% 30.22 in 45.0 mi Calm Calm - N/A   Partly Cloudy
12:47 PM 62.6 °F - 33.8 °F 34% 30.19 in 45.0 mi Calm Calm - N/A   Partly Cloudy
1:53 PM 66.2 °F - 30.2 °F 26% 30.16 in 45.0 mi Calm Calm - N/A   Partly Cloudy
2:47 PM 68.0 °F - 30.2 °F 24% 30.15 in 45.0 mi WSW 3.5 mph - N/A   Partly Cloudy
3:47 PM 69.8 °F - 30.2 °F 23% 30.14 in 45.0 mi West 5.8 mph - N/A   Scattered Clouds
4:47 PM 68.0 °F - 32.0 °F 26% 30.14 in 35.0 mi SW 6.9 mph - N/A   Scattered Clouds
5:47 PM 64.4 °F - 35.6 °F 34% 30.15 in 35.0 mi SW 5.8 mph - N/A   Scattered Clouds
6:47 PM 60.8 °F - 35.6 °F 39% 30.16 in 20.0 mi Calm Calm - N/A   Scattered Clouds
7:47 PM 57.2 °F - 37.4 °F 48% 30.18 in 20.0 mi Calm Calm - N/A   Scattered Clouds
7:55 PM 57.2 °F - 37.4 °F 48% 30.18 in 10.0 mi Calm Calm - N/A   Clear
8:15 PM 53.6 °F - 37.4 °F 54% 30.18 in 10.0 mi Calm Calm - N/A   Clear
8:35 PM 51.8 °F - 37.4 °F 58% 30.19 in 10.0 mi Calm Calm - N/A   Clear
8:47 PM 53.6 °F - 39.2 °F 58% 30.20 in 20.0 mi Calm Calm - N/A   Scattered Clouds
8:55 PM 51.8 °F - 39.2 °F 62% 30.20 in 10.0 mi Calm Calm - N/A   Clear
9:15 PM 51.8 °F - 41.0 °F 67% 30.20 in 10.0 mi Calm Calm - N/A   Clear
9:35 PM 50.0 °F - 41.0 °F 71% 30.21 in 10.0 mi Calm Calm - N/A   Clear
9:55 PM 46.4 °F - 39.2 °F 76% 30.21 in 10.0 mi Calm Calm - N/A   Clear
10:15 PM 50.0 °F - 41.0 °F 71% 30.21 in 10.0 mi SE 4.6 mph - N/A   Clear
10:35 PM 46.4 °F 43.5 °F 37.4 °F 71% 30.21 in 10.0 mi SE 5.8 mph - N/A   Clear
10:55 PM 46.4 °F 42.9 °F 37.4 °F 71% 30.22 in 10.0 mi SE 6.9 mph - N/A   Clear
11:15 PM 46.4 °F 43.5 °F 39.2 °F 76% 30.21 in 10.0 mi East 5.8 mph - N/A   Clear
11:35 PM 46.4 °F 43.5 °F 41.0 °F 81% 30.21 in 10.0 mi East 5.8 mph - N/A   Clear
11:55 PM 46.4 °F 44.3 °F 41.0 °F 81% 30.22 in 10.0 mi East 4.6 mph - N/A   Clear